Miscellaneous Local Product
Issued by NWS North Platte, NE

Home | Current Version | Previous Version | Graphics & Text | Print | Product List | Glossary On
Versions: 1 2 3 4 5 6 7 8 9 10 11 12 13 14 15 16 17 18 19 20 21 22 23 24 25 26 27 28 29 30 31 32 33 34 35 36 37 38 39 40 41 42 43 44 45 46 47 48 49 50
000
AXUS43 KLBF 251710
MISLBF


WESTERN AND NORTH CENTRAL NEBRASKA HOURLY WEATHER ROUNDUP
NATIONAL WEATHER SERVICE NORTH PLATTE NE
1100 AM CST SUN JAN 25 2015

***STATIONS NOT REPORTING VARIABLES SUCH AS SKY/WEATHER OR
PRESSURE ARE PROVIDED BY THE NEBRASKA DEPARTMENT OF
ROADS...RAWS...AND APRS NETWORKS...AND ARE NOT UNDER
NATIONAL WEATHER SERVICE QUALITY CONTROL***

...OBSERVATIONS IN AND NEAR THE EASTERN PANHANDLE OF NEBRASKA...

CITY           SKY/WX    TMP DP  RH WIND       PRES   REMARKS
PINE RIDGE     SUNNY     36  28  73 CALM      30.08F
CHADRON        CLOUDY    42  28  57 W14       30.09S
ALLIANCE       PTSUNNY   40  30  67 W15       30.09S WCI  32
SIDNEY         CLOUDY    45  29  53 NW15      30.14R
$$

...OBSERVATIONS IN NORTH CENTRAL NEBRASKA...

CITY           SKY/WX    TMP DP  RH WIND       PRES   REMARKS
VALENTINE      CLOUDY    37  29  72 NW14      30.07R WCI  28
THEDFORD       SUNNY     41  29  63 NW20      30.08R
AINSWORTH      CLOUDY    37  30  78 NW17G23   30.05R WCI  27
O`NEILL        CLOUDY    37  36  94 N8        30.03R WCI  31
ORD            CLOUDY    40  31  70 N18       30.02R WCI  31
BROKEN BOW     CLOUDY    40  30  67 N21G30    30.04R WCI  30
$$

...OBSERVATIONS IN SOUTHWEST NEBRASKA AND FAR NORTHEAST COLORADO...

CITY           SKY/WX    TMP DP  RH WIND       PRES   REMARKS
WRAY           FAIR      49  28  44 NW20G29   30.13R
HOLYOKE        FAIR      52  28  40 NW28G33   30.12R
IMPERIAL       SUNNY     44  28  53 NW21      30.11R
OGALLALA       SUNNY     43  29  59 NW12      30.11R
NORTH PLATTE   SUNNY     43  26  51 NW21G30   30.09R
MCCOOK         SUNNY     47  24  40 NW25G38   30.09R
LEXINGTON      PTSUNNY   42  30  62 N16       30.07R
$$

...NORTH PLATTE AREA...

CITY           SKY/WX    TMP DP  RH WIND       PRES   REMARKS
AIRPORT        SUNNY     43  26  51 NW21G30   30.09R
$$

...SOME WEATHER OBSERVATIONS FROM AROUND THE REGION...

CITY           SKY/WX    TMP DP  RH WIND       PRES   REMARKS
DENVER         PTSUNNY   46  28  49 SW9       30.17R
LARAMIE        CLOUDY    38  26  62 W22G28    30.20R WCI  27
CHEYENNE       CLOUDY    44  26  49 NW17G26   30.14R
SCOTTSBLUFF    CLOUDY    40  32  73 NW8       30.14S WCI  34
RAPID CITY     MOSUNNY   42  20  41 S6        30.04F
PIERRE         CLOUDY    38  31  76 NW15      30.04R WCI  29
WINNER         CLOUDY    38  31  76 NW13      30.05R WCI  30
SIOUX FALLS    CLOUDY    33  31  92 N8        30.00R WCI  26
OMAHA          CLOUDY    37  34  89 N18G24    29.95R WCI  27
GRAND ISLAND   CLOUDY    40  31  70 N26G32    30.02R WCI  29
KANSAS CITY    DRIZZLE   37  34  89 NW17      29.79R WCI  27
WICHITA        PTSUNNY   49  28  44 NW33G41   29.96R
HAYS           SUNNY     46  25  42 N32G40    30.07R
LIBERAL        SUNNY     50  27  40 N26G35    30.18R
GOODLAND       SUNNY     47  29  49 NW24G31   30.12R
$$



USA.gov is the U.S. government's official web portal to all federal, state and local government web resources and services.